Weather

Vsebine: Paragliding sitesCurrent conditionsCurrent conditions (amateur)Radar rainfal imageMeteo stationsPanoramic cameras


Current conditions (official report)

Show amateur stations

Click on a specific station to see its location

Location Weather conditions Temperature Wind Air pressure Last updated Geopedia
    °C direction speed (m/s) gusts (m/s) hPa    
Babno Polje 20   - - 2018-05-25 10:23:00
Babno Polje (756 m) 5   - - 2016-01-12 07:40:00
Bilje Nova Gorica 26   4 6 1015 2018-05-25 10:23:00
Bilje pri Novi Gorici 26   3 - 1015 2018-05-25 10:30:00
Blegoš 16   - - 2018-05-25 10:23:00
Bohinjska Češnjica 20   - - 2018-05-25 10:23:00
Boršt Gorenja vas 21   1 2 1015 2018-05-25 10:07:00
Bovec 20   - 2 1016 2018-05-25 10:07:00
Breginj 20   - - 2018-05-25 10:23:00
Bukovski vrh 19   - - 2018-05-25 10:23:00
Celje 20   3 - 1017 2018-05-25 10:30:00
Cerkniško jezero 21   - - 2018-05-25 10:23:00
Črnomelj 23   2 - 1016 2018-05-25 10:30:00
Davča 18   - - 2018-05-25 10:23:00
Dobliče Črnomelj 23   2 4 1016 2018-05-25 10:06:00
Dolenje Ajdovščina 25   1 5 2018-05-25 10:04:00
Gačnik 20   2 4 2018-05-25 10:23:00
Godnje 24   3 6 2018-05-25 10:23:00
Gornji Grad 21   - - 2018-05-25 10:23:00
Hočko Pohorje 19   - - 2018-05-25 10:23:00
Hrastnik 14   - 1 1017 2018-05-25 03:09:00
Idrija 22   - - 2018-05-25 10:23:00
Ilirska Bistrica 21   1 2 2018-05-25 10:06:00
Iskrba 20   1 3 2018-05-25 10:23:00
Jeronim 19   - - 2018-05-25 10:23:00
Jeruzalem 21   - - 2018-05-25 10:23:00
Jezersko 19   - - 2018-05-25 10:24:00
Juršče   - - 2016-09-13 14:33:00
Kamniška Bistrica 20   - - 2018-05-25 10:23:00
Kanin 8   - - 2018-05-25 10:23:00
Katarina nad Ljubljano 16   - - 2018-05-25 08:42:00
Kočevje 21   1 2 2018-05-25 10:23:00
Koper Kapitanija 26   2 4 1015 2018-05-25 10:07:00
Korensko sedlo 16   - - 2018-05-25 10:23:00
Kraj. park Goričko 17   1 2 2018-05-25 10:06:00
Kranj 23   - - 2018-05-25 10:23:00
Kredarica 4   1 - 2018-05-25 10:30:00
Krn 19   - - 2018-05-25 10:23:00
Krško 22   1 3 1017 2018-05-25 10:16:00
Krvavec   - - 2018-05-25 10:23:00
Kubed 25   - - 2018-05-25 10:23:00
Kum 16   1 2 2018-05-25 10:23:00
Lendava 22   2 5 1017 2018-05-25 10:06:00
Let. E. Rusjana Maribor 19   1 2 1017 2018-05-25 10:05:00
Let. J. Pučnika Lj. 0   2 3 1011 2015-11-26 11:03:00
Let. J. Pučnika Ljubljana 22   1 3 1016 2018-05-25 10:23:00
Letališče Cerklje ob Krki 20   1 - 1017 2018-05-25 10:30:00
Letališče Edvarda Rusjana Maribor 18   1 - 1017 2018-05-25 10:30:00
Letališče Jožeta Pučnika Ljubljana 21   1 - 1016 2018-05-25 10:30:00
Letališče Lesce 21   - - 1016 2018-05-25 10:30:00
Letališče Portorož 24   1 - 1015 2018-05-25 10:30:00
Lisca 15   1 - 2018-05-25 10:30:00
Lisca (943 m) 9   5 12 2016-03-29 14:02:00
Litija 22   - - 2018-05-25 10:23:00
Ljubljana 20   - - 1016 2018-05-25 10:30:00
Logarska dolina 16   - - 2018-05-25 10:23:00
Logatec 21   - - 2018-05-25 10:23:00
Luka Koper 26   2 4 2018-05-25 10:04:00
Malkovec 21   1 2 1017 2018-05-25 10:07:00
Maribor 21   2 3 2018-05-25 10:24:00
Maribor - Tabor 20   1 3 2018-05-25 10:04:00
Marinča vas 22   - - 2018-05-25 10:23:00
Metlika 24   - - 2018-05-25 10:23:00
Mežica 18   - - 2018-05-25 10:23:00
Miklavž na Gorjancih 15   - - 2018-05-25 10:23:00
Murska Sobota 20   2 - 1017 2018-05-25 10:30:00
Nanos 15   5 9 2018-05-25 10:23:00
Nova Gorica 25   1 3 2018-05-25 10:07:00
Nova vas - Bloke 20   - - 2018-05-25 10:23:00
Novo mesto 21   - - 1017 2018-05-25 10:30:00
Osilnica 22   - - 2018-05-25 10:23:00
Otlica 17   2 7 2018-05-25 10:03:00
Otlica (965 m) 7   4 7 2016-03-31 08:24:00
Park Škocj. jame 23   2 6 1015 2018-05-25 10:02:00
Pasja ravan 16   1 3 2018-05-25 10:23:00
Pavličevo sedlo 14   - - 2018-05-25 10:23:00
Piran-ocean. boja 23   1 1 2018-05-25 10:09:00
Planina pod Golico 18   - - 2018-05-25 10:23:00
Podčetrtek 20   2 4 1016 2018-05-25 10:05:00
Podnanos 26   2 5 2018-05-25 10:23:00
Postojna 22   1 - 2018-05-25 10:30:00
Predel 16   - - 2018-05-25 10:24:00
Ptuj 20   2 4 2018-05-25 10:24:00
Ptuj - Terme -2   2 3 2017-01-19 14:35:00
Radegunda 18   - - 2018-05-25 10:23:00
Radenci 20   - - 2018-05-25 10:06:00
Rateče 19   1 - 2018-05-25 10:30:00
Rateče (864 m) 19   1 3 2018-05-25 10:06:00
Ratitovec 14   3 5 2018-05-25 10:23:00
Ravne na Koroškem 20   3 6 2018-05-25 10:07:00
Rogaška Slatina 22   1 1 2018-05-25 10:24:00
Rogla 12   1 3 2018-05-25 10:23:00
Rogla (1492 m) -11   4 7 2016-01-18 10:32:00
Rudno polje 16   2 5 2018-05-25 10:23:00
Rudno polje (1347 m) -2   1 3 2015-10-20 07:36:00
Sevno 20   - - 2018-05-25 10:23:00
Slavnik 17   5 7 2018-05-25 10:23:00
Slovenj Gradec 18   2 - 2018-05-25 10:30:00
Slovenske Konjice 20   - - 2018-05-25 10:24:00
Sviščaki 17   2 5 2018-05-25 10:23:00
Šebreljski vrh 7   - - 2017-12-11 14:23:00
Šmartno pri Slovenj Gradcu 19   2 4 2018-05-25 10:24:00
Tatre 20   - - 2018-05-25 10:23:00
Tolmin - Volče 22   1 1 2018-05-25 10:23:00
Topol 20   - - 2018-05-25 10:23:00
Trebnje 21   - - 2018-05-25 10:24:00
Trije Kralji na Pohorju 14   - - 2018-05-25 10:24:00
Trojane - Limovce 20   2 4 1016 2018-05-25 10:24:00
Uršlja gora 11   3 5 2018-05-25 10:23:00
Vedrijan 25   - - 2018-05-25 10:23:00
Velenje 21   - - 2018-05-25 10:24:00
Velike Lašče 21   3 5 2018-05-25 10:24:00
Vogel 14   2 4 2018-05-25 10:23:00
Vojsko 14   - - 2018-05-25 08:42:00
Vrbanski plato -2   2 3 2016-12-07 11:23:00
Vrhnika 22   1 3 2018-05-25 10:23:00
Vršič 14   - - 2018-05-25 10:23:00
Zadlog 20   - - 2018-05-25 10:23:00
Zelenica 15   - - 2018-05-25 10:24:00
Zgornja Kapla 18   1 3 2018-05-25 10:24:00
Zgornja Radovna 18   - - 2018-05-25 10:23:00
Zgornja Sorica 18   - - 2018-05-25 10:24:00
Source: Slovenian Environmental Agency, meteo.si